loading
|

OBJECT D, 61241

Orbit data source: Space-Track

OBJECT D, 61241 is a satellite owned by Yunyao yuhang (CN) in SSO that was launched on Tue, 24 Sep 2024 UTC via a LIJIAN-1 launch vehicle from the Jiuquan Satellite Launch Center, China (JSC). Unknown objects in Earth's orbit typically refer to objects detected orbiting the Earth but have not yet been identified or cataloged. These objects could be anything from previously untracked satellites, spent rocket stages, debris from satellite collisions, or even natural meteoroids temporarily captured by Earth's gravity.

Loading next visibility...
Next conjunction unknown
Loading greatness...
OBJECT D details
Identifier
61241, 2024-174D
Orbit
SSO
Last TLE update12 hours ago
Origin
Flag of CNYunyao yuhang (CN / PRC)
ManufacturerYunyao yuhang
MissionOperational spacecraft
Bus & MotorYY-1, Unknown motor
Mass~50 kg wet, ~50 kg dry
Launch date (UTC)
2024-09-24 (3 weeks ago)
Launch vehicle
LIJIAN-1
Launch site
Jiuquan Satellite Launch Center, China (JSC)
Object typeUnknown
Shape & HBRUnknown
Radar Cross SectionMedium (>0.1 m² and <1 m²)

Expand to show TLE details & history

TLE from 12 hours ago
0 OBJECT D
1 61241U 24174D   24288.16235192  .00010844  00000-0  55597-3 0  9996
2 61241  97.4530 293.1153 0014338 209.6984 150.3437 15.16644598  2874
Epoch: 2024-10-14T03:53Z
Definitive object data (Epoch: 2024-10-14T03:53:47.205Z)
Latitude-0.00001°
Longitude-148.52483°
Altitude527.67 km
Speed7.594 km/s
True Right ascension19h 32m 27s
True Declination0° 00' 00"
Sunlit
Object was in daylight at TLE epoch
Predictive object data (real-time)
Latitude-32.88616°
Longitude27.14195°
Altitude518.575 km
Speed7.608 km/s
Apparent Right ascension03h 34m 24s
Apparent Declination-60° 09' 38"
Sunlit
Object is in daylight
Predictive observer data (real-time)
Local Sidereal Time10:29:17
Azimuth219.347° SW
Elevation-40.324°
Doppler factor1
Orbital elements
Apogee522.843 km
Perigee503.082 km
Semi-major axis6,891.1 km
Eccentricity0.0014338
Inclination97.453°
RAAN293.1153°
Arg. of periapsis209.6984°
True anomaly150.42487°
Mean anomaly150.3437°
Eccentric anomaly150.3843°
Mean motion3.79411 °/min
BSTAR0.00055597
Period94.88 mins
No data available
No data available

OBJECT D Visibility forecast

Observer location: 39.9160978°, -105.1181434

Span
Click to sort rows by Start time (UTC) header in descending order
Start Az.
Max El. time (UTC)
Max El. Az.
Max El.
End time (UTC)
End Az.
7 mins2024-10-15 00:36:00.678Z171.17° S2024-10-15 00:39:00.678Z193.802° SSW42.462°2024-10-15 00:43:00.678Z345.297° N
7 mins2024-10-15 13:42:00.678Z359.748° N2024-10-15 13:46:00.678Z260.941° W34.911°2024-10-15 13:49:00.678Z212.082° SW